Location: S�tio Afonso Gruber
(26.1760°S, 49.5250°W)
Time: 08:19:09
(UTC+00:00)

YUBILEINY - Visible Passes

Search period start: 26 November 2022 00:00
Search period end: 06 December 2022 00:00
Orbit: 1479 x 1508 km, 82.5° (Epoch: 25 November)

Date Brightness Start Highest point End Pass type
(mag) Time Alt. Az. Time Alt. Az. Time Alt. Az.
26 Nov ? 03:16:36 10° SSE 03:23:42 39° ESE 03:23:42 39° ESE visible
26 Nov ? 05:13:43 10° SSW 05:19:35 30° WSW 05:19:35 30° WSW visible
27 Nov ? 02:28:51 10° SSE 02:34:19 19° ESE 02:34:19 19° ESE visible
27 Nov ? 04:23:16 10° SSW 04:30:12 56° SW 04:30:12 56° SW visible
28 Nov ? 03:33:41 10° S 03:40:52 58° SE 03:40:52 58° SE visible
28 Nov ? 05:32:50 10° SW 05:36:46 18° WSW 05:36:46 18° WSW visible
29 Nov ? 02:44:57 10° SSE 02:51:32 32° ESE 02:51:32 32° ESE visible
29 Nov ? 04:41:20 10° SSW 04:47:25 36° WSW 04:47:25 36° WSW visible
30 Nov ? 01:57:56 10° SE 02:02:13 15° ESE 02:02:13 15° ESE visible
30 Nov ? 03:51:10 10° S 03:58:06 60° SSW 03:58:06 60° SSW visible
01 Dec ? 03:01:50 10° S 03:08:48 49° SE 03:08:48 49° SE visible
01 Dec ? 05:00:01 10° SW 05:04:42 22° WSW 05:04:42 22° WSW visible
02 Dec ? 02:13:26 10° SSE 02:19:31 26° ESE 02:19:31 26° ESE visible
02 Dec ? 04:09:03 10° SSW 04:15:24 43° SW 04:15:24 43° SW visible
03 Dec ? 01:27:59 10° SE 01:30:15 11° ESE 01:30:15 11° ESE visible
03 Dec ? 03:19:09 10° S 03:26:08 62° S 03:26:08 62° S visible
03 Dec ? 05:20:18 10° WSW 05:22:02 12° WSW 05:22:02 12° WSW visible
04 Dec ? 02:30:04 10° S 02:36:53 41° ESE 02:36:53 41° ESE visible
04 Dec ? 04:27:27 10° SSW 04:32:46 27° WSW 04:32:46 27° WSW visible
05 Dec ? 01:42:05 10° SSE 01:47:38 21° ESE 01:47:38 21° ESE visible
05 Dec ? 03:36:52 10° SSW 03:43:32 51° SW 03:43:32 51° SW visible
